Wind_Speed
14 14 13 11 11 11 8 8 7 5 6 6 8 9 9 8 9 9 9 10 10 11 12 13 13 14 15 15 15 15 14 14 13 12 12 11 10 10 8 8 6 5 5 4
16 16 15 15 14 14 12 10 8 8 8 7 8 10 10 8 10 10 10 10 9 10 11 12 12 13 13 13 13 14 14 14 14 13 12 11 11 10 8 7 7 6 6 5
17 16 15 15 15 15 13 12 12 11 8 8 10 12 12 10 8 11 12 10 9 9 10 11 11 11 12 12 13 13 13 14 14 13 13 12 11 10 9 8 7 6 6 6
20 19 19 17 17 16 14 13 13 11 10 11 11 14 15 15 11 10 12 11 9 10 9 10 10 10 11 12 12 12 13 13 14 13 12 12 11 11 9 8 8 7 7 6
21 20 21 20 18 17 16 15 14 14 13 14 13 16 15 15 12 10 11 11 11 10 10 10 10 10 11 12 12 12 13 13 13 13 12 12 12 11 10 9 8 8 7 7
23 22 23 22 20 20 18 17 16 15 15 17 15 15 17 17 14 13 11 9 10 11 11 11 11 11 11 12 12 12 12 13 13 13 13 13 12 11 10 9 8 8 8 7
24 23 23 22 22 21 20 18 15 16 17 17 16 15 18 19 17 16 14 13 12 13 12 12 12 12 12 12 12 12 12 13 14 14 13 13 12 12 11 10 10 9 8 8
23 23 24 23 23 21 20 19 19 19 19 19 17 16 17 17 17 17 16 15 16 14 14 14 13 13 12 12 12 11 12 13 14 14 13 13 13 13 12 12 11 10 9 9
20 21 21 24 23 22 21 21 19 20 20 21 20 17 17 16 16 16 17 17 19 18 16 15 14 13 13 13 13 13 13 13 14 15 14 13 13 13 13 12 11 11 11 10
24 22 20 22 24 24 23 21 20 21 22 21 19 18 16 18 17 17 17 19 20 19 18 17 15 15 14 14 14 14 14 14 14 14 14 13 13 13 13 12 12 12 11 11
28 26 22 22 25 24 23 23 23 23 22 21 20 22 19 18 20 19 18 19 20 21 19 17 16 15 15 16 16 15 15 15 15 15 15 14 14 14 13 13 12 13 13 13
28 28 26 23 24 22 23 24 23 24 24 23 21 22 20 19 20 20 20 20 19 19 20 18 18 16 16 17 18 18 17 17 16 16 16 16 15 15 14 14 14 14 14 14
30 30 28 24 22 22 23 24 23 23 23 23 21 22 23 21 20 21 22 23 22 20 20 21 21 18 18 19 19 19 19 18 17 17 18 18 17 16 16 16 15 16 16 16
31 31 30 26 23 22 23 23 23 23 23 22 22 23 23 24 24 23 23 24 24 22 22 23 23 22 22 22 21 21 21 20 20 19 19 19 18 17 17 17 18 18 18 18
31 32 32 31 26 23 22 22 24 25 25 24 23 24 26 26 26 26 26 25 26 26 24 24 25 25 25 24 23 23 23 23 22 21 20 20 20 19 20 20 20 19 20 20
31 32 31 31 29 27 24 24 24 24 24 25 25 27 26 27 29 27 28 27 28 26 26 26 26 27 27 26 25 24 24 24 23 22 21 21 22 22 22 22 22 22 21 21
29 30 31 29 28 28 28 25 25 24 24 26 27 30 32 30 30 28 28 29 29 29 27 27 27 28 28 28 27 25 25 24 24 24 23 24 23 23 23 23 23 23 22 22
30 30 30 28 27 28 29 28 27 27 28 28 29 30 32 32 32 31 31 31 31 29 28 28 28 28 29 29 28 27 27 25 25 25 25 25 26 25 26 25 25 25 25 25
29 31 31 29 27 27 27 28 27 28 29 31 31 31 33 34 33 33 33 33 33 30 29 29 29 29 30 30 30 29 28 28 28 27 27 26 27 27 27 27 27 27 27 27
29 30 31 30 28 26 29 30 29 28 30 32 33 33 34 33 33 34 33 32 32 31 30 29 29 30 30 30 30 30 30 30 30 30 29 29 28 28 29 29 29 29 30 30
27 29 30 30 29 29 33 32 29 30 32 33 34 34 35 35 36 35 33 33 32 31 30 31 31 31 31 31 31 31 31 31 31 31 31 31 31 31 31 30 30 30 31 31
26 27 29 30 30 33 35 34 32 34 34 33 34 35 35 35 36 36 34 35 34 32 32 32 32 32 32 32 32 32 32 32 32 32 32 32 33 33 33 32 32 32 32 32
30 29 29 31 33 35 35 35 35 35 36 36 37 37 37 36 36 36 36 36 35 35 34 34 34 34 34 34 34 34 33 33 33 33 33 33 34 34 34 34 34 34 34 33
31 32 33 34 36 36 36 36 35 34 35 36 38 39 38 37 37 37 38 38 38 37 37 36 36 36 36 36 36 36 35 35 35 35 34 34 35 35 35 35 35 35 35 35
32 31 32 34 35 35 37 37 36 35 36 36 37 38 37 38 38 38 38 38 38 38 37 38 38 38 38 37 37 37 38 38 37 37 36 36 37 37 37 37 37 37 37 37
31 32 33 34 36 37 36 37 36 36 37 37 37 37 38 38 38 39 39 39 39 38 38 38 38 38 38 38 37 37 38 38 37 37 37 38 38 38 38 38 38 38 38 38
Wind_Direction
215 215 209 209 226 241 246 244 242 253 269 270 280 289 296 319 330 340 346 353 1 5 8 13 17 17 19 21 22 20 20 20 20 18 19 21 20 19 18 19 18 12 13 1
216 221 218 214 217 235 241 242 244 246 250 262 267 276 283 297 314 326 330 335 345 355 1 3 7 10 11 14 15 15 15 14 14 12 11 12 11 11 9 6 6 2 359 355
218 221 228 224 225 229 235 243 244 247 252 274 276 277 276 272 283 306 318 325 332 343 353 358 360 0 4 7 8 8 9 8 7 8 7 5 6 5 2 357 355 355 351 344
225 219 227 228 229 228 234 240 250 256 257 258 262 272 274 274 266 283 306 312 321 329 340 352 355 355 355 358 360 0 2 3 1 1 2 1 359 358 356 351 350 348 348 342
226 225 226 228 227 228 232 236 244 248 248 253 250 262 270 277 270 273 290 300 310 319 328 336 342 343 343 346 349 351 355 356 354 353 354 354 353 352 350 347 343 340 338 335
225 229 233 229 229 227 227 236 240 245 246 254 256 260 274 274 274 276 277 283 295 302 315 323 328 332 335 338 341 344 347 350 349 346 346 347 348 346 342 342 338 334 332 329
228 228 234 230 231 231 229 232 242 251 252 253 251 250 262 272 275 281 280 280 288 296 301 309 317 323 326 329 331 335 339 343 344 342 341 340 340 339 336 335 334 329 327 326
236 238 237 238 234 225 231 230 235 246 254 259 253 243 251 260 267 271 274 277 283 282 289 297 304 313 318 320 323 325 329 332 334 335 334 335 336 335 335 335 335 331 326 325
227 242 244 244 241 230 227 230 233 247 256 263 262 251 254 260 267 269 271 272 276 280 283 287 297 305 309 312 315 318 319 321 323 324 325 328 331 333 332 330 328 327 326 323
216 226 231 241 242 235 229 231 232 237 247 255 263 265 256 260 261 262 268 272 275 276 278 284 291 297 301 306 308 310 312 313 314 318 320 324 324 325 326 326 325 323 323 322
220 223 224 231 239 236 231 227 228 234 238 248 260 262 257 257 260 260 266 272 273 274 271 272 281 289 294 299 303 304 305 306 306 308 309 313 313 315 318 322 323 323 321 321
222 223 225 228 238 239 232 233 232 233 234 236 250 264 269 264 263 265 265 269 267 267 272 274 279 282 288 294 298 299 298 299 300 301 302 306 306 306 311 313 315 316 317 316
223 223 223 225 234 238 235 232 232 234 240 242 245 256 263 267 263 261 263 266 269 271 273 274 277 280 285 290 292 294 294 294 295 296 297 299 302 305 306 308 308 311 312 310
225 224 221 221 228 234 239 233 228 229 233 241 245 252 258 262 262 262 264 269 271 271 269 271 276 278 282 285 287 289 289 290 291 292 293 295 298 302 303 303 305 307 308 307
228 227 225 221 223 232 237 237 232 233 230 235 243 249 253 260 262 264 266 269 270 270 268 270 274 277 278 279 281 284 285 286 289 289 290 292 294 297 298 298 299 301 304 305
230 229 227 225 223 230 235 235 237 237 240 240 242 248 251 257 259 264 267 267 266 268 268 270 272 275 275 275 276 280 282 283 285 287 288 289 290 293 295 294 295 295 297 302
229 230 228 229 228 231 235 233 236 239 240 240 240 246 251 256 258 260 264 266 267 267 268 270 272 274 275 277 275 275 277 278 280 283 285 287 286 290 293 293 296 297 297 299
231 232 232 230 230 235 237 236 239 241 243 244 245 247 252 254 257 260 263 264 267 268 269 270 271 272 274 276 274 275 275 277 280 282 282 285 286 287 289 290 289 291 293 294
235 236 234 231 233 238 242 239 238 241 242 245 246 248 253 257 257 259 261 265 268 269 270 270 269 270 272 274 274 275 275 277 278 280 282 283 284 286 287 287 289 290 292 292
237 236 234 233 232 236 240 244 243 242 244 244 246 249 252 255 258 259 261 264 266 267 267 268 268 269 271 272 274 275 276 275 274 274 276 278 280 283 285 286 288 289 291 292
237 235 234 234 236 237 242 243 244 244 245 247 249 252 254 255 259 261 263 265 268 268 266 266 268 270 271 273 274 275 275 274 273 273 273 274 277 279 282 285 287 289 291 291
236 237 236 236 235 237 243 244 243 245 247 250 253 255 257 257 259 261 262 263 265 267 267 268 269 270 271 273 273 274 273 272 272 273 274 275 276 276 279 282 284 286 288 288
232 233 233 234 237 241 245 247 245 246 249 251 252 255 257 259 260 261 261 262 263 265 266 268 269 269 269 271 272 273 272 271 270 271 273 274 276 278 277 279 282 283 284 286
234 235 236 238 240 243 246 249 250 250 251 252 254 256 257 258 260 260 261 262 264 266 267 268 269 269 269 270 271 272 271 270 270 271 272 275 277 278 278 278 279 280 282 284
238 239 240 242 243 243 246 251 253 254 253 254 256 257 258 260 259 260 262 263 264 266 267 268 269 269 269 270 271 271 272 270 269 271 273 275 277 278 279 278 277 279 280 282
243 244 245 246 247 249 249 252 255 256 257 256 257 258 260 261 262 262 263 264 265 266 266 268 269 269 268 268 269 270 270 270 270 272 273 274 275 275 277 277 277 278 279 281
Height
5918 5921 5923 5927 5930 5931 5933 5933 5933 5934 5935 5936 5934 5931 5929 5928 5926 5925 5924 5922 5921 5919 5918 5916 5914 5913 5911 5910 5908 5907 5905 5904 5902 5901 5899 5898 5897 5896 5895 5894 5893 5893 5892 5892
5917 5919 5922 5924 5926 5929 5931 5932 5933 5933 5934 5934 5933 5931 5930 5927 5926 5925 5924 5922 5921 5920 5918 5917 5915 5914 5912 5911 5909 5908 5906 5905 5903 5902 5900 5899 5898 5897 5896 5895 5894 5893 5892 5892
5913 5918 5919 5921 5924 5927 5929 5930 5931 5932 5932 5933 5933 5931 5928 5926 5925 5925 5924 5922 5921 5919 5918 5917 5916 5915 5913 5912 5910 5909 5907 5905 5904 5902 5901 5900 5898 5897 5896 5895 5894 5893 5892 5891
5910 5914 5916 5918 5921 5924 5926 5929 5929 5929 5930 5932 5932 5930 5927 5924 5921 5923 5923 5921 5920 5919 5918 5917 5916 5915 5914 5912 5911 5909 5908 5906 5904 5903 5901 5900 5898 5897 5896 5895 5894 5893 5892 5891
5906 5909 5911 5914 5918 5921 5923 5925 5926 5927 5928 5928 5929 5927 5924 5923 5919 5919 5920 5920 5918 5918 5917 5917 5916 5915 5913 5912 5911 5909 5908 5906 5904 5903 5901 5900 5898 5897 5895 5894 5893 5892 5891 5890
5902 5905 5907 5910 5914 5916 5919 5921 5922 5923 5924 5925 5926 5925 5922 5920 5918 5917 5916 5917 5917 5917 5916 5915 5915 5914 5913 5912 5910 5909 5907 5906 5904 5903 5901 5899 5898 5896 5895 5894 5893 5892 5891 5890
5897 5900 5902 5905 5908 5912 5914 5917 5919 5920 5920 5921 5922 5922 5921 5918 5918 5916 5915 5914 5915 5915 5914 5914 5913 5912 5911 5910 5910 5908 5907 5905 5904 5902 5901 5899 5897 5895 5894 5893 5892 5891 5890 5889
5894 5896 5899 5900 5903 5906 5909 5913 5916 5918 5918 5917 5916 5917 5917 5916 5915 5915 5915 5914 5913 5913 5913 5912 5911 5911 5910 5909 5908 5907 5906 5904 5903 5902 5900 5898 5896 5895 5893 5892 5891 5890 5889 5888
5890 5894 5896 5896 5898 5902 5904 5908 5912 5914 5914 5913 5912 5912 5912 5913 5912 5912 5912 5912 5911 5910 5910 5909 5909 5908 5908 5907 5906 5905 5904 5903 5902 5900 5899 5897 5895 5894 5892 5891 5889 5888 5887 5886
5883 5887 5891 5893 5894 5896 5900 5903 5907 5909 5909 5909 5909 5908 5907 5907 5908 5909 5909 5908 5907 5907 5907 5906 5906 5905 5905 5904 5904 5903 5902 5901 5900 5898 5897 5895 5894 5892 5891 5889 5888 5887 5886 5884
5877 5881 5885 5888 5889 5892 5894 5897 5900 5902 5905 5906 5907 5906 5902 5903 5904 5905 5904 5904 5903 5903 5903 5900 5902 5902 5902 5901 5900 5900 5899 5898 5897 5896 5895 5893 5892 5890 5889 5888 5886 5885 5884 5882
5870 5874 5878 5882 5884 5886 5889 5892 5895 5897 5899 5900 5902 5902 5899 5900 5900 5900 5899 5899 5897 5898 5898 5897 5897 5897 5898 5898 5897 5896 5896 5895 5894 5893 5892 5890 5889 5887 5886 5885 5884 5883 5882 5880
5863 5867 5871 5876 5881 5882 5883 5886 5889 5892 5894 5896 5898 5898 5895 5893 5894 5895 5895 5895 5895 5894 5895 5894 5893 5892 5894 5894 5894 5892 5892 5892 5891 5890 5888 5887 5885 5884 5884 5882 5881 5880 5879 5878
5855 5859 5864 5870 5874 5876 5877 5880 5883 5886 5889 5891 5893 5892 5890 5888 5888 5889 5890 5890 5890 5889 5891 5890 5889 5889 5890 5890 5889 5889 5888 5887 5887 5886 5885 5883 5882 5881 5880 5879 5878 5877 5876 5874
5848 5852 5856 5861 5866 5869 5871 5874 5876 5879 5882 5884 5886 5885 5884 5882 5883 5884 5884 5885 5885 5884 5885 5886 5885 5885 5885 5884 5884 5884 5884 5883 5882 5881 5880 5879 5878 5877 5876 5875 5874 5873 5872 5870
5841 5845 5849 5854 5859 5862 5865 5868 5870 5873 5876 5877 5879 5877 5876 5876 5876 5877 5878 5878 5879 5878 5879 5880 5879 5879 5879 5878 5878 5878 5878 5878 5877 5876 5875 5874 5873 5872 5871 5870 5869 5868 5867 5866
5835 5839 5843 5847 5853 5856 5858 5861 5864 5866 5867 5869 5871 5871 5869 5870 5870 5871 5871 5872 5872 5873 5873 5874 5873 5873 5872 5871 5872 5871 5872 5871 5871 5870 5870 5868 5867 5866 5866 5865 5864 5862 5861 5861
5829 5832 5837 5841 5845 5848 5852 5854 5857 5859 5860 5861 5862 5862 5862 5863 5864 5864 5864 5864 5865 5865 5866 5867 5867 5866 5866 5865 5865 5864 5865 5865 5864 5864 5863 5863 5861 5860 5859 5858 5857 5856 5856 5855
5822 5826 5830 5834 5838 5841 5844 5845 5848 5850 5852 5853 5853 5854 5854 5854 5856 5856 5857 5857 5858 5859 5859 5859 5859 5859 5859 5858 5858 5857 5858 5858 5858 5857 5857 5856 5855 5854 5854 5852 5851 5850 5849 5848
5816 5819 5824 5827 5831 5835 5836 5836 5839 5843 5843 5843 5844 5845 5846 5846 5847 5848 5848 5848 5850 5851 5851 5851 5851 5851 5852 5851 5851 5850 5850 5850 5850 5850 5849 5849 5848 5848 5847 5846 5845 5843 5842 5841
5809 5812 5816 5819 5822 5826 5825 5827 5831 5834 5833 5834 5835 5836 5837 5839 5839 5840 5840 5841 5842 5842 5843 5843 5844 5844 5844 5844 5843 5843 5843 5842 5842 5842 5842 5841 5841 5840 5840 5838 5837 5836 5835 5833
5802 5806 5808 5811 5814 5817 5815 5819 5821 5822 5823 5825 5827 5827 5828 5830 5830 5831 5831 5832 5834 5834 5835 5835 5835 5835 5835 5835 5835 5834 5834 5833 5833 5833 5833 5833 5832 5831 5831 5830 5829 5828 5827 5826
5794 5797 5799 5802 5805 5806 5807 5809 5811 5813 5815 5816 5818 5818 5820 5821 5821 5822 5823 5824 5825 5825 5826 5826 5826 5826 5826 5826 5826 5825 5825 5824 5824 5824 5824 5823 5823 5822 5821 5821 5820 5820 5819 5818
5785 5788 5791 5793 5795 5797 5799 5800 5801 5803 5805 5807 5808 5808 5810 5811 5812 5813 5814 5814 5815 5815 5816 5816 5816 5816 5816 5816 5816 5816 5815 5815 5815 5814 5814 5814 5813 5812 5811 5811 5811 5810 5809 5809
5777 5779 5782 5784 5786 5787 5789 5791 5793 5794 5795 5797 5797 5797 5798 5801 5802 5803 5803 5804 5804 5805 5805 5805 5805 5805 5805 5805 5805 5805 5804 5804 5804 5804 5804 5804 5803 5802 5802 5801 5800 5800 5800 5799
5769 5771 5773 5775 5776 5778 5780 5781 5783 5784 5785 5786 5788 5788 5789 5790 5791 5791 5792 5793 5793 5793 5794 5794 5794 5794 5794 5794 5794 5794 5793 5793 5793 5794 5794 5793 5793 5792 5791 5790 5789 5788 5789 5788